Wind_Speed
22 22 23 23 23 22 21 21 20 20 20 21 21 21 22 22 22 23 23 24 23 23 23 22 22 21 21 22 22 22 21 21 22 21 20 20 21 21
22 22 22 22 22 22 22 22 22 22 22 22 22 21 21 22 22 23 23 23 23 23 23 23 22 21 22 22 21 22 21 21 21 20 20 20 21 22
24 23 23 23 22 22 23 23 23 23 22 22 22 22 22 23 23 23 23 23 23 23 23 23 22 22 23 22 22 23 22 22 22 22 22 22 22 21
24 23 23 23 22 22 23 24 24 24 23 22 22 23 23 23 24 23 23 24 24 24 24 24 24 24 24 24 25 25 25 24 24 23 23 22 23 22
24 24 24 24 23 23 23 24 24 23 24 23 23 24 24 25 25 25 25 25 25 26 26 25 26 26 27 27 28 28 27 27 27 26 24 24 23 23
25 25 25 25 24 24 24 25 25 25 25 25 25 25 25 25 26 26 27 27 27 27 28 28 28 28 28 29 29 29 29 30 29 28 27 26 25 25
26 26 26 25 25 25 26 26 26 26 27 27 27 27 26 26 26 27 28 28 28 28 29 30 30 30 30 31 31 30 30 30 30 29 28 27 27 27
27 27 27 26 26 27 27 28 27 28 29 29 29 28 28 28 28 28 29 29 29 29 29 30 31 31 31 32 31 30 30 30 30 29 29 28 29 29
28 28 29 28 29 29 29 29 29 30 30 30 30 29 30 30 29 29 30 30 30 30 30 30 31 31 31 31 30 30 31 31 30 30 30 30 30 31
30 31 31 30 31 31 31 31 30 31 30 30 31 31 31 31 31 30 30 31 31 32 32 32 32 32 31 32 31 31 31 31 31 31 31 31 31 31
31 31 32 32 32 32 31 31 31 31 31 32 32 32 33 33 32 31 32 32 32 32 33 34 33 33 33 32 32 32 32 32 32 32 31 32 31 31
31 31 32 33 32 32 31 31 31 32 32 32 33 33 33 33 33 33 33 33 34 34 35 35 35 35 34 33 33 34 33 33 33 33 32 32 32 32
31 31 31 32 32 31 31 31 31 32 32 32 32 33 34 34 34 34 34 34 34 34 35 36 35 35 35 34 34 35 35 35 34 33 33 33 33 33
32 31 31 31 31 31 31 31 32 32 32 32 32 33 34 35 35 35 35 35 35 35 35 35 35 35 36 35 35 36 36 35 34 34 34 34 34 33
32 31 32 32 32 32 32 32 32 32 33 33 33 34 34 35 35 35 35 35 35 36 36 36 36 36 36 36 35 35 36 35 35 35 35 35 34 34
33 33 33 32 33 33 33 33 32 32 33 33 34 34 35 35 35 35 35 35 35 35 36 36 36 36 36 36 35 35 35 35 35 36 36 36 35 35
33 34 33 33 33 33 33 33 32 33 34 34 34 34 33 33 32 33 34 34 34 34 34 35 35 35 35 36 35 35 36 36 36 36 36 36 36 36
33 34 33 33 33 33 34 34 34 34 34 33 33 33 34 33 33 33 33 33 32 32 32 33 34 34 35 35 35 35 36 37 37 37 37 36 35 34
33 33 33 33 33 34 34 34 34 34 34 34 34 33 33 33 33 33 32 31 31 32 33 33 33 33 33 33 33 34 35 35 35 35 35 35 34 34
33 33 33 33 34 34 34 34 34 34 34 34 33 33 33 33 32 32 32 32 32 32 31 31 32 31 31 31 30 31 33 33 34 34 34 33 33 33
33 33 33 34 34 34 34 34 34 33 33 33 32 32 32 31 31 31 31 31 31 31 30 29 29 29 29 29 29 29 30 31 31 31 31 31 31 32
32 32 32 33 33 33 33 33 32 32 32 31 31 31 31 31 30 30 30 30 30 29 28 28 28 27 27 27 26 27 28 28 29 29 30 30 30 30
31 31 32 32 32 31 31 31 31 30 29 29 29 29 29 29 29 29 30 29 29 29 28 28 27 26 25 25 25 25 26 26 27 28 29 29 29 29
Wind_Direction
292 293 295 293 289 286 284 281 280 280 279 277 275 273 271 270 271 269 268 268 266 266 265 264 264 263 259 260 258 259 260 260 258 257 256 256 255 253
291 294 294 292 289 285 283 281 281 280 279 278 275 272 269 268 269 270 268 266 265 265 263 263 263 261 261 259 258 259 259 258 258 258 257 256 255 254
289 292 293 292 289 285 283 282 282 280 279 278 275 273 270 268 269 269 267 265 264 264 263 262 262 259 259 258 258 258 260 258 259 260 258 256 253 254
286 288 290 291 289 287 285 282 280 278 278 279 276 274 272 269 268 268 267 266 266 264 263 261 262 260 259 260 259 259 260 259 259 260 259 255 253 253
284 286 288 288 288 287 285 282 279 276 277 278 276 274 272 270 268 268 269 269 267 264 263 262 261 260 260 260 262 261 260 260 258 257 256 255 254 254
282 284 286 286 286 286 283 281 278 276 277 277 276 276 274 270 268 268 268 268 266 264 263 262 262 260 262 262 262 262 262 260 259 258 256 255 254 254
280 282 283 284 284 285 284 282 278 276 276 276 275 276 273 270 268 267 267 268 268 267 265 264 263 261 261 261 262 262 261 258 256 257 257 257 257 255
279 280 282 283 284 283 283 281 280 278 277 276 274 274 273 272 270 268 269 270 270 269 267 265 264 261 260 259 259 260 260 258 256 256 256 256 256 255
278 279 280 283 283 283 282 281 282 282 278 276 275 275 275 273 273 272 272 272 270 268 267 266 266 266 262 260 258 259 259 258 256 256 258 258 257 255
277 279 280 282 284 283 282 281 281 279 277 276 275 276 276 276 275 274 272 271 269 267 267 267 267 265 262 261 258 257 258 258 258 257 257 257 255 255
280 280 281 282 282 283 282 281 281 279 276 275 275 275 275 275 275 274 274 272 269 269 269 268 268 266 263 260 258 258 258 257 257 257 257 257 255 254
281 281 281 282 281 281 282 282 281 278 277 275 275 275 274 273 274 273 274 273 271 271 270 268 267 266 264 262 259 257 257 256 256 256 256 256 255 255
282 281 281 282 282 281 282 281 279 278 276 276 276 276 275 274 274 274 274 274 273 272 271 268 267 266 264 261 258 256 255 255 255 255 255 255 256 255
283 282 282 282 281 281 282 281 280 279 277 276 277 277 276 275 275 274 274 274 273 272 271 268 266 265 263 261 259 257 255 254 253 253 254 254 253 253
283 282 283 281 281 282 282 281 280 279 278 278 277 277 277 276 274 274 273 273 272 271 270 268 265 264 263 261 260 259 256 253 251 252 253 252 251 250
283 283 282 282 281 282 282 280 280 279 279 278 277 276 276 276 274 273 274 273 272 271 270 267 265 264 263 261 260 259 255 254 252 251 251 250 250 250
283 283 282 281 281 281 281 280 280 280 280 280 279 279 279 278 277 277 276 274 273 272 270 268 266 265 263 261 259 257 254 253 254 253 251 250 250 250
284 283 282 281 281 280 280 280 280 280 280 281 281 280 280 279 278 278 278 275 273 272 271 269 266 265 263 261 259 257 254 253 253 253 252 251 250 250
283 282 281 281 281 281 281 282 281 280 280 279 279 279 279 279 277 277 276 274 273 271 271 268 266 265 265 262 258 255 253 252 252 251 251 251 251 250
283 282 282 282 282 282 281 282 283 282 280 279 278 279 278 276 275 274 274 274 273 272 271 269 266 265 264 262 257 254 252 251 250 250 249 248 249 248
283 283 282 283 283 283 282 283 284 283 281 279 278 277 276 275 274 272 272 273 273 272 271 268 265 263 262 260 256 253 252 250 248 248 247 247 247 246
283 283 283 283 283 283 283 283 283 283 281 279 277 276 275 274 272 272 271 271 271 270 269 266 262 262 261 257 255 253 251 250 248 246 246 246 246 244
283 284 285 284 284 283 283 283 283 282 279 279 277 276 275 273 272 271 271 269 269 268 266 264 262 261 257 256 255 252 250 249 249 247 246 246 245 244
Height
5781 5779 5777 5775 5773 5771 5770 5769 5769 5768 5768 5767 5767 5767 5767 5768 5768 5769 5769 5769 5769 5770 5770 5770 5770 5770 5770 5772 5773 5773 5774 5774 5774 5774 5775 5776 5776 5777
5775 5773 5770 5768 5766 5765 5764 5763 5762 5762 5761 5761 5760 5760 5761 5762 5762 5761 5762 5762 5762 5763 5763 5764 5764 5764 5765 5766 5766 5767 5768 5768 5768 5769 5769 5770 5770 5771
5768 5766 5764 5762 5760 5758 5757 5756 5755 5755 5755 5754 5754 5754 5754 5755 5755 5755 5755 5755 5756 5756 5756 5757 5758 5758 5759 5759 5760 5761 5761 5762 5762 5762 5763 5764 5764 5765
5762 5760 5758 5755 5754 5752 5751 5750 5749 5748 5748 5748 5747 5747 5747 5748 5748 5748 5748 5748 5748 5749 5749 5750 5750 5751 5752 5752 5753 5754 5754 5755 5755 5755 5756 5757 5757 5758
5754 5753 5751 5749 5747 5746 5744 5743 5742 5741 5741 5741 5741 5740 5740 5740 5740 5740 5741 5741 5741 5741 5741 5742 5742 5743 5744 5745 5746 5746 5747 5747 5748 5748 5749 5750 5750 5751
5747 5746 5744 5742 5741 5739 5737 5736 5735 5735 5734 5734 5733 5733 5732 5732 5732 5733 5733 5733 5733 5733 5733 5733 5734 5735 5735 5736 5737 5738 5738 5739 5740 5741 5741 5742 5743 5744
5739 5738 5737 5735 5734 5732 5730 5729 5728 5727 5727 5726 5726 5725 5724 5724 5725 5724 5724 5724 5724 5724 5724 5725 5725 5725 5726 5727 5728 5729 5729 5730 5732 5732 5733 5734 5735 5736
5731 5730 5729 5728 5726 5724 5723 5721 5720 5719 5719 5718 5718 5717 5717 5716 5716 5716 5716 5716 5716 5716 5715 5715 5715 5716 5717 5717 5718 5719 5720 5721 5722 5724 5725 5726 5727 5728
5723 5722 5721 5720 5718 5716 5715 5713 5712 5710 5710 5710 5709 5709 5708 5708 5707 5707 5707 5706 5706 5706 5706 5706 5706 5707 5707 5707 5708 5710 5711 5712 5713 5714 5716 5717 5719 5720
5714 5713 5712 5710 5709 5707 5705 5704 5703 5701 5700 5700 5700 5699 5699 5698 5698 5697 5697 5697 5696 5696 5696 5696 5696 5697 5697 5697 5698 5699 5701 5702 5703 5705 5706 5707 5709 5710
5705 5704 5702 5701 5699 5697 5696 5695 5693 5691 5690 5690 5689 5689 5688 5688 5687 5687 5686 5686 5686 5686 5685 5685 5686 5686 5686 5687 5688 5689 5690 5692 5694 5695 5697 5698 5699 5701
5695 5694 5692 5691 5689 5687 5686 5685 5684 5682 5681 5680 5679 5679 5678 5677 5676 5676 5676 5675 5675 5675 5675 5674 5674 5674 5676 5677 5677 5678 5680 5681 5683 5685 5687 5688 5690 5691
5685 5684 5682 5681 5679 5678 5676 5675 5673 5672 5671 5670 5669 5668 5668 5667 5666 5665 5665 5664 5664 5664 5663 5662 5663 5663 5664 5666 5667 5668 5669 5670 5672 5674 5676 5678 5680 5681
5675 5674 5673 5671 5670 5668 5667 5665 5664 5662 5661 5660 5659 5658 5657 5656 5656 5655 5654 5653 5652 5652 5651 5651 5651 5652 5652 5654 5655 5656 5658 5659 5661 5664 5666 5667 5669 5671
5666 5664 5663 5661 5660 5659 5657 5655 5654 5653 5652 5651 5649 5648 5647 5646 5644 5643 5642 5641 5641 5640 5640 5640 5640 5640 5641 5642 5643 5644 5646 5648 5650 5652 5654 5656 5659 5661
5656 5654 5653 5651 5650 5648 5647 5645 5644 5642 5641 5640 5639 5637 5636 5635 5633 5632 5631 5630 5629 5629 5628 5628 5628 5629 5630 5631 5632 5633 5634 5637 5639 5641 5643 5645 5647 5650
5646 5644 5643 5642 5640 5638 5636 5635 5633 5632 5631 5629 5628 5626 5625 5623 5622 5621 5619 5618 5618 5617 5617 5617 5617 5617 5618 5619 5621 5622 5623 5625 5627 5629 5632 5634 5636 5639
5636 5634 5632 5631 5629 5628 5626 5625 5623 5622 5620 5618 5617 5615 5614 5613 5611 5610 5608 5607 5607 5606 5606 5606 5606 5606 5607 5609 5610 5611 5612 5614 5616 5618 5620 5623 5626 5628
5626 5624 5622 5621 5619 5617 5615 5614 5612 5611 5609 5608 5606 5605 5603 5602 5600 5599 5598 5597 5596 5596 5596 5595 5595 5595 5596 5598 5600 5600 5601 5603 5605 5607 5610 5612 5615 5617
5615 5613 5612 5610 5608 5606 5605 5603 5601 5600 5598 5597 5596 5594 5592 5591 5590 5589 5588 5587 5586 5586 5585 5585 5585 5585 5586 5587 5589 5591 5591 5593 5595 5597 5599 5602 5604 5607
5605 5603 5601 5600 5598 5595 5594 5592 5591 5589 5587 5586 5585 5583 5582 5581 5580 5579 5578 5577 5576 5576 5575 5575 5575 5575 5576 5577 5579 5581 5582 5583 5585 5587 5589 5592 5595 5597
5595 5593 5591 5589 5587 5585 5584 5582 5580 5578 5576 5575 5574 5572 5571 5570 5569 5569 5568 5567 5567 5566 5566 5566 5566 5566 5567 5568 5570 5571 5573 5574 5576 5578 5580 5583 5585 5588
5585 5583 5581 5579 5577 5575 5573 5572 5570 5568 5566 5565 5563 5562 5561 5560 5560 5559 5558 5558 5557 5557 5557 5557 5557 5558 5559 5560 5561 5563 5565 5566 5568 5570 5573 5574 5576 5578